Regional Weather Roundup
Issued by NWS

Home | Current Version | Previous Version | Text Only | Print | Product List | Glossary On
Versions: 1 2 3 4 5 6 7 8 9 10 11 12 13 14 15 16 17 18 19 20 21 22 23 24 25 26 27 28 29 30 31 32 33 34 35 36 37 38 39 40 41 42 43 44 45 46 47 48 49 50
000
ASUS46 KSTO 270515
RWRCA

NORTHERN AND CENTRAL CA REGIONAL WEATHER ROUNDUP
NATIONAL WEATHER SERVICE SACRAMENTO CA
1000 PM PDT MON JUN 26 2017

NOTE: FAIR INDICATES FEW OR NO CLOUDS BELOW 12,000 FEET WITH NO
SIGNIFICANT WEATHER AND/OR OBSTRUCTIONS TO VISIBILITY.

CAZ001-003-270600-
NORTHWEST AREA

CITY           SKY/WX    TMP DP  RH WIND       PRES   REMARKS
CRESCENT CITY  CLOUDY    57  55  93 N5        30.07R
UKIAH          CLEAR     63  51  65 N6        29.99R
$$

CAZ006-505>513-270600-
BAY AREA

CITY           SKY/WX    TMP DP  RH WIND       PRES   REMARKS
SANTA ROSA     CLEAR     60  54  80 SE7       29.96R
SAN RAFAEL     N/A       62  MM  MM MISG
NAPA           CLEAR     62  54  74 W14G22    29.96R
CONCORD        CLEAR     65  55  70 SW12      29.98R
OAKLAND CITY   N/A      MM  MM  MM MISG
OAKLAND        PTCLDY    63  57  81 W20       30.00R
SAN FRAN CITY  N/A       59  MM  85 MISG
SAN FRAN ARPT  PTCLDY    61  54  77 W14       30.00S
LIVERMORE      CLEAR     60  54  80 W15       29.99R
HAYWARD        MOCLDY    63  53  70 W12       30.00R
REDWOOD CITY   N/A       60  MM  82 MISG
MOFFETT ARPT   CLEAR     62  56  80 NW12      30.01R
SAN JOSE ARPT  PTCLDY    64  57  78 NW14      30.01R
$$
CAZ034-037-514>518-270600-
CENTRAL COAST

CITY           SKY/WX    TMP DP  RH WIND       PRES   REMARKS
WATSONVILLE    PTCLDY    60  57  89 E6        30.00R
SALINAS        CLEAR     63  55  75 W7        30.01R
MONTEREY       CLEAR     61  56  83 S7        30.02S
SAN LUIS OBISP CLEAR     59  55  87 NW12      29.99R
SANTA MARIA    CLEAR     58  56  93 NW13      29.99R
$$
CAZ015-016-270600-
NORTHERN SACRAMENTO VALLEY

CITY           SKY/WX    TMP DP  RH WIND       PRES   REMARKS
REDDING        CLEAR     79  56  45 SE5       29.88R
RED BLUFF      CLEAR     77  55  46 E5        29.89R
OROVILLE       CLEAR     76  53  44 SE10      29.90R
$$
CAZ016>018-270600-
SOUTHERN SACRAMENTO VALLEY

CITY           SKY/WX    TMP DP  RH WIND       PRES   REMARKS
AUBURN         CLEAR     70  54  56 S6        29.98R
BEALE AFB      CLEAR     74  53  47 SE14      29.88R
LINCOLN        FAIR      73  46  38 SE13      29.90S
MARYSVILLE     CLEAR     72  53  51 S10       29.90R
SAC INTL ARPT  CLEAR     67  55  65 S15       29.90R
MATHER AIRPORT CLEAR     66  54  63 S8        29.93R
DOWNTOWN SAC   N/A       68  MM  MM MISG
SAC EXEC ARPT  CLEAR     66  55  67 S8G18     29.92R
VACAVILLE      CLEAR     68  54  60 S9        29.90S
TRAVIS AFB     CLEAR     61  53  76 SW18G26   29.92R
$$
CAZ019>021-270600-
SAN JOAQUIN VALLEY

CITY           SKY/WX    TMP DP  RH WIND       PRES   REMARKS
STOCKTON       CLEAR     68  57  68 W12       29.94R
MODESTO        CLEAR     73  55  53 N14G21    29.91R
MERCED         CLEAR     77  57  50 N13       29.90R
LEMOORE        CLEAR     80  57  45 NW10      29.88R
FRESNO         CLEAR     84  57  39 NW15      29.88R
HANFORD        CLEAR     85  58  39 NW12      29.87R
PORTERVILLE      N/A     83  54  36 CALM      29.88R
BAKERSFIELD    CLEAR     87  42  20 W3        29.86R
$$
CAZ011-012-071-270600-
NORTHERN MOUNTAINS

CITY           SKY/WX    TMP DP  RH WIND       PRES   REMARKS
YREKA          PTCLDY    72  56  57 NE10      30.00R
MOUNT SHASTA   PTCLDY    68  41  37 VRB3      30.05R
ALTURAS        CLEAR     68  40  35 W10       30.08R
$$
CAZ011-012-071-270600-
SIERRA NEVADA MTNS

CITY           SKY/WX    TMP DP  RH WIND       PRES   REMARKS
BLUE CANYON    CLEAR     62  39  42 SE7       30.19R
TRUCKEE        CLEAR     52  30  43 S6        30.21R
TAHOE VLY ARPT CLEAR     59  34  39 VRB3      30.22R
MAMMOTH LAKES  FAIR      61  28  29 N8        30.29R
$$



USA.gov is the U.S. government's official web portal to all federal, state and local government web resources and services.